Theta_e
357 352 354 353 350 348 345 339 318 326 323 313 314 317 316 331 330 327 325 330 324 334 336 336 336 332 329 328 327 331 331 321 323 308 306 331 346 349 352 353 354 353 353 354 355 357 358 362 364 364 365 364 364 364 364 364 364 364 364 364 364 364 364 364 364 363 363 361 362 361 361 361 361 361 361 359 359 360 361 363 362 362 362 363 362 362 363 363 362 363 362 364 363 363 363 363 363
352 348 350 351 345 344 332 341 322 319 319 313 315 322 321 328 327 325 324 327 327 331 336 336 336 338 336 335 334 332 331 333 335 333 338 344 348 350 354 354 354 352 353 354 356 357 357 360 364 364 364 365 365 364 364 364 364 364 365 365 364 364 364 364 363 362 362 360 361 361 361 361 361 361 362 360 361 361 361 362 362 362 362 361 360 362 361 361 364 364 363 364 363 363 363 363 362
346 344 344 347 346 342 338 338 315 316 313 307 313 321 328 323 323 325 329 331 333 334 336 335 336 334 332 335 328 328 322 336 336 338 338 346 342 347 354 355 355 354 354 355 356 356 356 359 364 364 364 365 364 364 364 364 365 365 364 364 364 364 364 363 363 362 362 362 361 361 361 361 361 361 361 361 360 359 360 361 361 360 360 360 361 361 361 363 363 364 363 363 363 363 363 363 362
344 344 341 343 335 341 327 328 321 316 312 313 312 324 325 323 324 330 333 333 334 336 336 332 330 336 332 326 328 333 331 332 338 338 337 341 343 351 354 355 357 355 355 355 354 354 354 360 364 365 364 365 364 364 364 364 364 364 364 364 364 364 363 363 362 362 362 361 361 361 362 361 361 361 362 362 360 361 360 361 361 361 361 362 361 361 362 361 362 362 364 363 363 364 364 363 362
349 353 352 346 336 327 327 324 321 320 312 315 311 323 326 327 330 332 333 337 335 333 335 334 330 334 337 331 332 325 328 337 339 343 341 346 352 353 354 356 355 354 354 354 353 353 355 361 363 364 365 364 364 364 364 363 364 363 364 365 364 363 362 363 362 362 362 361 361 361 361 361 361 362 361 361 361 360 361 360 360 360 361 360 361 360 361 361 361 363 363 363 363 363 363 363 362
349 347 353 346 332 343 331 319 318 317 322 326 319 323 328 331 330 331 332 339 336 335 336 333 329 329 329 331 335 330 337 329 340 342 345 346 352 355 355 356 355 354 355 354 354 354 356 363 365 365 365 365 364 364 363 363 363 364 365 364 363 364 363 363 363 363 362 361 360 361 361 361 361 362 361 361 360 360 361 360 361 360 360 360 360 360 360 361 360 364 364 362 362 362 363 362 362
342 348 350 345 341 338 319 317 316 319 324 329 324 326 329 332 333 333 332 332 336 334 335 330 332 330 326 332 336 339 344 344 342 344 349 350 353 355 355 354 354 354 355 355 355 356 358 364 365 366 365 364 364 364 363 364 363 365 365 364 365 362 364 364 363 362 361 361 361 360 360 361 361 361 361 361 360 361 360 360 360 361 361 360 361 360 360 360 361 363 363 361 362 362 362 362 362
353 340 339 329 325 326 319 320 320 322 324 331 330 329 332 333 333 332 329 327 326 327 331 333 336 330 328 339 327 339 344 346 347 350 352 353 354 354 354 353 353 354 356 356 357 358 364 365 365 366 364 363 363 364 363 362 363 364 364 364 364 362 363 362 362 362 362 362 361 360 359 360 360 360 360 360 360 360 360 359 359 360 360 360 361 361 359 361 362 362 362 362 362 362 362 362 362
352 343 341 328 320 325 320 318 321 329 326 331 332 335 336 335 335 332 331 334 331 332 332 333 333 326 328 332 331 339 343 348 350 352 352 352 352 353 353 353 354 354 356 357 358 361 362 365 365 365 363 363 364 365 363 365 364 364 363 363 362 362 362 361 362 363 363 362 361 359 359 359 360 359 360 360 360 361 360 360 359 360 360 360 361 361 361 360 362 362 362 362 362 362 361 361 362
345 343 327 325 326 315 318 319 320 323 326 331 331 332 334 334 333 335 331 330 331 332 333 336 335 328 332 328 331 336 341 348 349 348 350 351 352 352 352 354 355 355 355 357 360 361 361 366 365 364 364 363 364 364 362 363 365 364 363 363 362 361 362 362 362 364 360 361 360 358 357 359 360 360 360 360 360 360 361 360 361 360 360 360 361 361 361 362 362 362 362 362 362 361 361 360 361
334 341 339 324 319 316 315 318 321 325 326 331 332 336 336 338 336 334 334 331 336 331 333 336 330 330 331 331 332 343 347 348 346 345 349 351 351 351 352 354 355 356 356 358 360 360 361 361 365 364 364 364 364 363 364 364 364 364 363 363 362 361 360 360 361 361 362 361 359 358 356 359 359 359 361 360 360 360 361 361 361 361 361 361 362 361 362 362 362 362 362 361 360 361 363 362 362
329 330 332 318 317 317 318 318 320 324 328 329 328 335 338 337 338 330 331 329 331 331 331 335 329 334 329 330 331 340 345 345 346 348 349 351 351 352 352 353 355 357 359 359 360 360 361 361 362 364 364 364 364 363 364 365 364 364 363 362 362 362 362 362 363 361 360 359 359 359 358 358 358 359 360 360 360 360 360 361 361 361 361 362 362 362 363 363 362 361 361 361 360 361 363 364 363
331 332 324 320 319 320 322 320 319 324 324 326 329 335 344 334 333 336 335 335 332 330 332 337 336 335 326 329 336 341 340 343 346 349 350 350 351 353 354 354 356 357 358 360 359 359 360 360 361 360 362 364 364 363 363 364 363 363 363 363 362 362 363 362 363 361 360 361 359 358 356 358 359 360 359 360 360 360 361 361 362 362 363 363 363 363 362 362 363 363 363 363 361 361 361 363 363
332 333 326 317 326 322 320 320 324 320 321 328 335 340 340 335 334 335 336 333 331 330 335 338 337 335 330 332 333 335 339 344 347 349 350 351 352 353 353 353 354 356 358 359 358 359 359 361 361 360 360 360 361 363 364 363 363 363 363 363 362 361 363 363 363 363 360 361 360 358 360 358 359 360 361 360 361 361 361 361 362 362 363 362 363 363 363 363 363 363 363 363 362 362 360 361 361
335 340 329 323 321 321 323 318 321 322 321 330 335 335 335 336 339 338 337 331 331 337 339 342 338 333 324 328 328 334 340 345 347 349 350 351 351 351 351 353 355 357 357 358 359 359 359 359 359 359 360 359 358 358 358 361 363 364 362 362 363 361 363 363 363 362 362 361 359 358 358 357 359 360 361 361 361 361 361 361 362 362 362 361 362 363 363 362 362 363 363 363 363 362 361 361 361
341 338 331 321 318 319 322 322 325 323 323 332 335 339 335 338 340 335 335 340 335 340 339 332 340 335 334 332 334 339 343 346 348 349 349 349 349 350 352 353 354 355 356 357 358 358 358 358 358 358 358 357 357 357 358 359 362 363 362 362 363 362 363 363 363 361 361 360 358 358 359 357 358 359 361 359 361 362 362 360 361 362 362 362 362 363 363 363 363 363 363 363 363 363 363 362 361
346 340 321 320 316 321 323 325 327 320 329 333 338 336 333 332 340 342 349 346 334 334 337 337 338 340 335 337 341 343 345 348 349 347 346 347 348 349 350 351 351 353 355 356 356 356 357 357 357 356 357 356 356 357 357 357 360 362 361 362 363 364 362 364 363 362 362 361 361 360 358 356 356 355 355 355 361 359 361 362 363 363 362 363 363 363 364 364 364 363 364 364 364 364 364 363 360
340 326 321 315 319 322 328 327 332 335 330 334 335 337 335 329 336 339 346 342 337 336 335 337 339 338 340 343 344 345 346 346 346 344 344 345 346 346 346 347 348 348 350 352 354 354 355 356 356 356 355 355 356 357 358 359 359 360 356 357 359 359 359 362 362 361 362 360 365 359 358 359 356 356 356 360 359 360 360 363 363 363 362 363 363 364 364 363 364 363 363 363 363 362 364 358 361
332 326 323 315 325 331 337 335 339 334 333 336 338 339 335 333 337 341 334 333 331 330 332 334 334 337 341 342 343 343 344 344 345 344 343 343 343 343 344 345 345 347 348 349 350 353 354 355 356 356 355 355 355 356 358 359 355 354 355 356 360 361 359 360 359 358 354 356 357 358 358 357 357 358 357 361 361 363 361 363 363 363 363 363 364 364 364 364 363 363 363 362 362 362 359 353 355
338 328 320 320 329 334 339 337 337 341 339 336 335 338 334 336 341 343 334 330 329 327 328 330 331 333 336 339 341 342 343 343 344 344 343 343 343 344 344 344 344 346 347 347 349 353 354 355 356 356 355 355 354 354 356 355 354 353 354 355 356 357 357 358 356 355 354 353 355 355 355 357 357 356 361 363 362 358 359 363 364 364 364 364 363 364 364 364 364 363 363 363 367 363 355 353 354
337 333 324 325 331 329 337 337 340 340 341 336 336 340 336 340 340 342 336 329 328 329 332 331 331 334 336 338 340 341 342 342 343 343 343 343 344 345 345 345 345 346 347 350 352 352 354 355 356 356 355 355 354 356 355 353 353 352 352 354 355 354 354 355 355 354 354 354 354 355 355 358 357 356 356 356 355 356 355 356 357 356 356 357 363 353 355 356 358 354 354 360 355 357 356 355 353
334 329 333 332 333 329 338 339 343 340 342 339 338 333 334 344 344 340 336 326 325 329 333 335 335 337 337 337 339 341 341 341 342 342 342 343 343 344 345 346 349 350 351 349 350 352 354 356 356 356 356 355 355 354 353 356 356 351 351 353 353 354 355 355 355 355 355 354 355 356 357 355 355 355 354 354 354 354 353 353 354 354 353 355 360 353 353 353 353 353 354 355 355 356 357 357 356
324 330 332 334 333 333 337 339 340 341 339 337 335 338 341 340 338 342 340 334 337 341 336 336 338 339 339 340 339 339 340 341 341 342 343 343 344 345 346 347 347 348 350 350 352 353 355 356 356 356 355 354 354 354 355 357 352 352 352 354 352 352 354 354 354 355 355 355 356 357 355 354 354 354 354 353 353 353 353 352 353 353 354 352 358 353 353 354 354 354 353 354 355 356 357 356 355
332 326 331 332 334 332 338 341 340 340 339 338 342 343 339 337 331 342 335 340 344 338 337 338 339 340 340 338 339 339 339 340 341 343 344 345 345 346 347 347 348 350 349 350 352 353 355 355 356 356 355 355 353 355 356 354 353 353 355 360 355 358 357 354 354 355 357 358 358 358 359 354 353 353 353 352 352 353 353 353 354 355 355 354 356 355 354 353 354 354 353 354 355 355 356 355 354
328 328 331 332 333 336 339 341 340 340 341 342 341 339 339 339 337 337 336 339 345 336 337 338 338 338 338 337 338 338 339 341 342 343 345 346 347 348 348 348 348 349 348 350 352 353 354 356 355 354 356 355 354 355 355 355 354 355 357 354 353 363 355 355 356 357 356 357 360 359 358 353 353 353 352 353 353 353 353 353 353 354 355 354 354 354 354 354 354 354 355 354 354 354 354 353 350
332 331 332 331 332 336 337 339 342 341 341 341 338 338 343 339 339 334 337 340 341 339 336 337 336 336 336 337 338 339 339 340 342 343 343 345 347 347 346 346 347 347 348 350 352 352 354 356 354 354 356 354 354 355 355 355 355 354 353 353 354 360 354 356 357 356 355 356 357 359 358 354 353 353 352 353 353 352 354 352 353 354 353 354 353 351 353 352 351 351 352 354 354 353 353 348 346
334 332 331 332 334 335 338 335 335 340 341 340 336 336 336 337 338 326 338 341 344 337 335 336 335 334 336 337 338 339 340 340 341 343 343 344 345 345 345 346 346 347 349 349 352 353 355 354 353 355 356 357 354 355 355 354 355 353 354 353 356 354 354 355 358 356 356 357 358 359 361 359 354 353 353 352 352 352 352 352 350 351 352 352 352 351 355 353 352 352 352 353 351 352 347 349 344
332 333 333 333 333 335 335 337 336 338 337 341 339 335 336 336 335 328 336 341 343 337 334 334 334 334 335 337 337 338 339 341 342 341 341 342 342 343 343 344 344 346 347 349 351 353 354 353 354 356 357 357 356 356 357 354 353 353 354 354 354 354 354 353 356 356 358 356 358 358 358 358 360 354 354 353 352 351 351 352 353 350 350 351 353 351 352 355 356 357 359 357 354 356 355 354 351
332 330 326 329 331 329 334 332 333 337 334 341 340 333 328 330 328 334 338 341 341 337 341 333 333 333 334 336 336 336 337 339 340 340 341 342 343 344 343 345 344 346 348 350 351 353 354 353 354 356 357 357 354 355 354 354 353 354 353 353 353 355 353 354 355 355 357 357 357 357 358 357 359 354 353 353 358 349 351 351 353 353 352 351 352 354 356 357 357 357 355 360 357 354 353 353 356
330 329 328 325 325 325 331 338 337 336 337 340 338 315 320 325 331 335 342 340 338 336 336 332 332 333 333 334 334 334 336 337 336 338 341 341 342 343 342 343 346 346 346 348 351 352 355 355 356 356 355 353 353 353 352 352 353 353 353 351 354 353 352 353 355 355 358 359 357 358 357 357 356 355 352 353 352 350 350 350 351 352 354 355 355 356 356 358 357 354 356 354 361 354 350 350 348
322 327 329 320 319 317 330 336 336 333 337 336 335 314 318 326 331 339 342 337 334 333 334 334 332 332 333 333 333 333 334 335 334 336 338 339 342 342 341 342 345 346 348 348 349 351 354 354 355 354 354 351 353 351 352 351 352 353 351 351 351 351 352 352 353 353 357 358 359 358 357 358 359 356 354 353 351 350 350 350 350 350 355 357 358 358 357 358 356 355 358 352 353 353 352 355 349
319 316 314 320 316 318 328 334 334 328 333 336 330 315 320 326 332 340 342 339 334 331 333 333 331 332 333 333 333 332 333 335 333 335 336 340 341 341 341 341 345 347 347 348 350 352 351 353 355 353 353 351 350 351 350 351 351 352 351 355 350 350 351 351 351 353 357 358 360 359 359 361 360 355 355 353 351 352 351 350 351 355 358 358 359 359 360 357 358 358 359 354 352 355 357 350 353
306 312 314 315 317 318 322 330 334 335 332 336 333 317 324 325 335 340 343 339 336 330 331 331 332 331 332 332 332 331 332 332 331 334 337 339 340 340 340 342 345 347 348 348 350 350 350 352 355 353 352 351 350 351 350 351 350 350 351 353 350 349 349 350 351 354 358 358 359 358 360 363 361 362 361 358 354 353 354 354 356 359 361 359 358 357 356 358 355 359 358 362 356 354 352 354 350
296 308 312 318 316 318 316 327 332 334 332 326 332 322 324 330 335 338 341 339 335 331 332 334 330 331 331 331 331 331 331 329 329 333 336 337 338 339 340 348 346 347 348 349 350 349 349 351 351 353 353 351 350 350 350 350 349 350 352 353 353 348 349 350 352 355 356 357 359 359 362 365 365 363 363 360 355 355 355 356 358 361 361 358 356 355 354 356 355 355 356 358 361 355 353 353 350
298 302 310 314 319 319 318 318 326 330 332 327 328 324 327 331 335 336 339 339 335 332 334 336 332 329 330 330 329 330 329 328 329 333 335 335 336 338 342 345 345 346 347 349 349 349 349 349 352 354 352 351 350 351 351 350 349 350 352 351 350 348 349 350 353 354 355 357 359 361 363 365 365 361 361 361 359 360 356 357 360 360 359 356 353 353 355 359 361 355 355 355 361 357 354 354 350
301 305 309 315 314 316 317 322 330 330 326 323 324 321 324 329 332 335 337 339 333 334 334 335 336 328 329 329 329 329 328 328 331 332 334 334 336 339 342 343 343 343 347 348 348 348 347 348 350 352 351 351 351 351 351 349 349 349 348 349 347 348 348 351 352 353 355 356 360 363 363 363 363 362 361 362 359 357 356 358 359 360 357 354 352 352 351 352 354 356 355 359 353 357 359 357 353
302 302 303 315 315 316 322 325 330 332 325 322 323 325 325 327 331 333 335 338 335 332 332 334 336 331 328 327 328 329 328 328 331 332 333 333 337 340 340 340 340 344 346 346 346 346 346 347 349 348 350 353 352 350 349 348 347 347 347 347 346 347 348 351 352 353 355 357 361 362 363 363 362 363 362 361 361 363 357 357 358 357 357 355 353 351 354 355 357 358 360 361 356 350 350 354 352
302 300 300 300 315 313 322 324 329 331 322 320 326 325 324 327 331 333 335 334 330 331 331 332 334 333 329 331 328 328 328 330 331 331 332 334 337 339 338 338 344 342 343 345 345 345 345 348 348 348 351 352 352 350 349 349 348 346 346 347 349 348 352 351 350 353 356 360 361 362 362 363 362 361 362 362 362 359 358 357 357 356 356 354 354 358 357 365 359 355 358 353 355 352 347 354 354
301 299 300 303 305 315 325 327 328 329 322 319 326 323 324 328 330 333 332 332 332 334 332 332 333 332 332 335 335 328 329 328 329 331 332 334 336 337 336 338 342 343 343 343 344 345 345 347 348 349 351 351 351 352 350 349 350 352 349 349 350 349 352 354 354 357 359 360 361 361 362 362 361 360 362 363 360 360 360 357 357 356 355 358 354 351 353 356 355 355 355 351 349 353 354 357 353
298 298 298 303 317 317 312 324 327 328 322 321 325 322 323 329 331 332 333 334 334 337 336 335 336 332 332 333 335 335 329 327 328 330 331 333 334 335 335 338 341 342 342 342 343 344 346 347 348 349 350 351 351 354 353 351 353 351 352 351 352 351 349 356 356 358 359 360 359 361 361 362 361 361 363 364 361 361 359 356 357 357 358 359 353 351 353 354 356 357 357 358 353 346 345 346 361
297 299 300 311 317 317 317 319 326 326 328 328 323 319 319 324 324 327 332 336 336 338 333 332 335 337 339 340 340 341 332 328 328 330 331 332 332 333 335 338 341 340 340 341 344 344 346 347 349 350 350 350 351 357 353 352 356 350 353 352 355 352 353 352 353 353 357 359 360 360 360 361 362 362 363 363 362 359 359 357 356 356 358 359 357 355 354 354 356 356 357 356 354 347 344 348 353
295 299 301 312 319 317 318 322 322 317 317 323 320 306 309 320 323 325 329 330 330 337 332 331 333 335 339 336 335 338 341 331 329 330 331 332 333 334 336 338 339 340 339 341 345 345 346 348 349 350 350 350 350 354 353 353 354 347 349 347 345 346 345 348 349 350 353 356 357 361 361 362 362 361 361 360 363 363 360 359 357 357 358 358 358 356 354 355 356 354 355 355 353 353 350 348 347
293 295 301 313 317 317 318 320 317 310 309 319 323 307 304 317 319 323 327 328 328 332 333 333 333 336 338 336 336 336 337 337 330 330 331 332 333 334 336 337 339 339 339 342 345 345 347 349 349 350 350 350 351 352 353 354 351 348 349 347 347 345 344 346 350 353 354 356 359 359 360 361 361 361 360 360 362 363 360 360 360 359 360 358 362 357 355 357 357 356 357 357 356 358 353 345 345
293 299 303 310 316 316 317 319 315 314 320 322 321 314 309 309 317 324 327 327 327 328 330 333 334 336 338 337 337 336 337 337 333 330 331 333 333 334 335 337 339 340 340 341 344 345 347 349 349 349 350 351 351 351 352 353 351 350 348 348 348 346 346 346 349 351 354 356 356 358 359 359 360 360 360 359 362 363 361 360 359 359 360 359 362 361 356 356 356 357 360 357 357 358 352 348 347
296 302 305 309 316 317 317 316 313 311 313 309 316 318 306 307 316 325 326 322 324 325 327 330 332 335 337 337 337 336 337 339 337 330 331 332 333 335 336 336 339 341 341 340 343 345 347 349 349 349 350 351 350 352 353 353 355 353 351 350 348 348 348 349 351 354 353 356 354 355 357 357 357 358 359 360 361 362 365 361 359 359 360 359 365 361 358 357 358 355 357 357 355 357 353 355 352
302 304 309 309 311 312 316 314 312 308 308 304 310 313 303 302 313 319 324 322 321 324 327 329 332 334 336 336 337 338 338 338 341 334 332 333 334 335 337 338 338 340 341 342 344 346 347 349 348 349 350 350 349 353 354 353 355 357 353 351 349 348 351 350 350 350 351 353 352 354 355 355 355 356 358 359 361 361 362 363 361 361 360 361 364 362 359 356 359 357 358 358 357 357 358 359 352
306 308 306 303 303 303 310 314 311 307 303 306 313 313 310 299 311 317 317 319 324 325 327 330 332 334 336 336 338 339 338 339 340 339 332 333 335 336 337 337 338 340 341 342 344 345 347 349 348 347 349 350 350 354 353 353 355 355 354 352 350 349 350 350 348 348 349 350 351 352 353 353 354 356 357 359 362 361 362 364 362 362 361 362 365 359 358 357 361 359 359 358 357 356 354 355 358
305 303 301 299 299 301 301 304 306 297 296 304 313 311 313 301 305 317 323 326 328 327 325 327 330 332 334 335 337 339 339 338 340 339 333 333 333 336 337 337 338 339 340 342 344 345 346 348 348 347 349 350 349 354 353 353 354 355 354 353 351 351 350 350 348 347 348 350 350 351 352 352 354 356 358 358 361 361 362 362 364 363 362 360 359 357 358 359 360 358 356 356 356 357 355 357 355
304 299 299 293 290 293 291 295 295 294 292 300 310 312 307 304 312 319 323 324 328 330 329 329 331 332 334 335 337 339 339 339 339 338 334 332 332 334 335 337 338 337 339 341 344 345 345 347 348 347 348 350 348 355 353 352 353 354 354 353 352 353 349 349 349 348 349 350 350 352 351 350 352 354 356 358 359 361 361 361 360 359 359 361 360 360 359 358 357 358 357 357 357 357 356 355 354
299 299 294 290 290 287 284 290 294 292 298 304 308 314 303 308 311 318 322 325 330 332 332 333 334 334 334 335 336 338 339 338 339 339 335 332 333 334 335 336 338 338 339 341 345 345 345 345 349 347 349 350 349 353 353 352 353 354 354 354 351 354 349 349 349 350 350 351 352 353 352 351 352 354 356 357 360 361 361 361 362 360 359 359 361 361 359 357 358 357 358 358 358 359 357 357 357
298 300 299 294 292 290 286 287 287 289 293 302 312 305 301 303 305 320 323 326 330 333 334 335 336 336 335 336 337 337 337 337 339 340 336 334 334 334 335 336 337 338 339 342 345 345 345 344 348 347 348 350 348 351 353 352 352 354 353 354 351 354 349 350 350 353 351 352 353 353 352 352 354 354 355 358 360 360 360 361 360 360 359 359 362 360 363 359 359 357 360 359 359 359 360 359 358
300 302 301 296 296 297 291 292 290 293 295 295 303 303 308 308 319 324 325 327 328 330 331 334 334 334 335 335 335 336 337 338 340 342 339 337 335 335 336 335 336 338 338 342 345 346 345 345 347 347 348 351 349 351 353 353 352 354 353 352 352 355 354 352 354 355 353 353 354 354 353 353 355 356 355 358 358 359 359 360 361 360 362 363 362 360 361 359 357 356 356 359 356 362 360 359 359
298 302 296 297 300 302 296 301 300 300 296 297 308 305 309 315 317 320 324 325 326 328 329 331 331 332 332 332 334 336 338 339 341 342 340 341 338 336 336 335 337 338 338 342 345 346 346 347 347 347 348 352 350 350 353 354 353 353 353 352 353 354 354 350 353 352 353 353 354 354 353 353 354 355 356 359 357 357 358 359 359 360 362 363 362 361 361 359 357 356 357 357 356 356 358 357 359
300 297 297 303 305 302 296 291 290 289 287 295 305 303 303 305 301 318 320 323 323 325 327 330 330 331 330 332 333 337 339 341 342 342 341 343 342 344 348 340 340 339 338 342 345 347 347 348 348 347 348 351 351 350 353 354 353 353 352 352 353 354 354 353 353 353 353 353 352 353 354 353 353 355 355 360 358 357 357 364 358 360 362 363 362 361 360 360 359 358 358 358 360 358 357 359 361
299 298 304 300 294 295 294 293 289 288 288 295 300 303 304 305 304 314 315 318 320 323 326 327 328 330 331 332 335 336 337 339 340 338 340 341 343 346 345 344 345 346 348 345 346 348 348 348 350 349 348 352 353 352 353 355 354 354 354 353 353 354 354 354 354 354 354 352 352 352 353 353 354 354 355 354 356 358 357 359 357 359 361 362 361 360 360 360 359 358 358 358 359 357 356 355 357
306 305 299 302 296 293 293 293 293 291 288 295 296 302 299 309 309 316 317 318 320 323 324 325 329 330 332 333 335 336 336 337 338 339 340 340 342 343 346 347 346 346 347 346 347 347 348 350 352 351 350 353 354 352 354 354 354 354 354 353 353 353 354 354 353 353 352 352 352 352 353 352 353 356 354 352 354 357 358 358 356 357 360 360 360 360 359 359 359 358 359 360 359 356 356 355 356
297 296 295 300 298 299 297 299 294 290 289 295 296 292 298 309 318 320 320 322 323 323 325 328 331 332 333 334 335 335 337 338 340 338 337 341 343 345 346 348 347 348 349 348 347 347 348 350 351 352 352 353 354 354 354 355 355 353 353 352 353 353 354 353 353 353 351 350 351 353 351 352 352 353 354 352 352 354 358 358 357 356 358 358 358 358 358 358 358 358 357 357 356 355 354 354 354
298 295 294 294 294 294 292 289 296 296 296 291 294 290 300 314 324 323 322 324 326 326 327 327 330 331 331 332 333 334 335 336 339 342 343 342 342 346 347 347 348 348 347 347 348 349 349 349 350 351 352 353 356 356 355 355 355 354 352 351 352 353 353 353 352 351 351 349 349 350 350 350 350 351 352 353 353 353 354 357 358 356 356 357 357 357 358 357 357 356 357 359 357 354 353 354 353
Wind_Speed
6 4 3 3 1 1 1 1 1 1 1 0 0 0 2 3 1 3 3 2 3 1 2 2 6 5 3 2 8 8 10 7 0 5 5 2 8 12 7 10 9 8 7 5 3 3 3 4 7 10 10 12 13 13 12 11 12 12 12 12 12 12 11 12 13 13 14 13 12 13 13 12 13 14 14 13 12 12 13 12 12 13 13 13 15 15 16 15 15 15 16 17 16 17 16 16 17
5 5 4 3 2 2 1 2 1 1 1 1 1 1 2 5 3 4 7 5 2 2 4 3 5 8 11 13 8 11 9 8 2 5 5 7 12 8 10 11 11 10 8 6 4 4 3 4 8 9 11 13 13 12 11 11 12 12 12 12 12 12 12 12 13 14 14 13 12 12 12 12 12 13 12 13 14 13 13 13 13 12 12 13 14 14 14 15 14 15 17 17 16 16 16 16 16
5 5 3 2 0 2 1 1 2 1 0 2 1 0 2 6 5 1 3 3 4 1 8 8 10 8 13 4 7 3 2 4 13 10 8 10 12 7 11 11 10 10 10 5 5 5 2 4 7 10 12 13 12 11 11 12 12 11 12 12 12 13 12 12 13 13 13 12 12 13 13 11 11 13 13 12 14 12 11 11 13 13 13 12 12 13 14 13 13 16 17 18 16 16 16 16 16
4 3 4 2 2 1 1 0 1 0 1 0 1 1 3 3 5 4 1 1 5 5 6 6 4 3 3 11 9 12 6 4 3 14 9 9 6 11 11 12 11 9 7 6 4 4 2 5 7 9 12 13 12 11 11 12 12 12 12 12 12 12 12 13 13 13 12 12 12 13 12 11 12 12 13 13 13 14 14 13 14 14 13 12 13 13 12 13 14 16 16 17 16 15 15 15 15
3 1 1 0 1 0 1 1 1 1 2 0 1 2 2 0 4 3 4 3 9 6 4 7 5 5 4 10 4 3 5 9 8 6 8 6 11 11 12 12 10 9 8 7 6 5 4 7 6 10 12 13 11 11 12 12 11 12 12 12 12 12 13 13 12 12 12 12 12 12 12 12 12 12 12 12 13 14 14 13 14 14 14 13 14 13 12 13 15 16 16 16 16 15 15 15 16
3 2 1 2 2 1 1 1 1 1 2 1 2 2 2 3 6 6 6 4 7 7 6 6 9 9 5 5 3 5 13 8 8 7 9 11 15 14 13 11 10 9 8 7 6 5 4 8 9 13 12 12 11 11 13 11 11 12 12 12 12 13 13 13 12 12 13 13 12 11 11 12 12 11 12 12 13 14 15 14 15 13 15 15 14 13 12 13 14 15 15 16 16 15 14 15 15
2 3 0 1 0 0 2 1 1 0 1 1 3 3 2 3 4 3 4 5 6 7 8 10 15 15 12 7 12 6 5 9 8 10 8 15 16 14 14 11 10 10 9 7 6 5 6 10 13 13 13 12 11 11 13 11 11 13 13 13 13 12 13 13 12 13 13 12 13 11 11 12 13 12 12 11 13 13 14 16 14 15 14 15 15 15 14 15 16 16 16 16 16 15 15 14 15
1 1 1 1 1 1 2 2 2 3 1 2 4 5 3 4 4 4 5 3 10 9 7 8 3 15 11 3 6 8 10 3 10 14 16 15 15 15 13 11 11 10 9 7 6 5 10 13 12 13 12 12 11 11 12 11 12 12 13 13 14 14 13 13 12 12 13 12 12 13 11 11 13 13 12 13 12 13 15 16 14 15 14 15 15 16 17 17 17 16 16 16 15 14 13 14 14
3 2 1 0 0 1 0 2 1 2 3 2 5 2 6 4 2 3 1 5 7 6 11 13 8 18 4 12 9 8 9 14 13 17 17 17 16 15 10 11 11 10 10 8 7 6 7 12 13 13 12 11 11 12 12 11 12 13 13 13 13 14 13 13 12 12 12 12 15 12 11 12 13 15 14 13 14 14 14 15 16 16 16 16 16 16 17 18 17 16 15 14 13 12 12 13 14
0 0 1 1 1 3 1 1 2 1 2 2 6 4 3 3 2 1 4 5 6 11 7 5 2 19 12 13 12 8 10 15 17 16 16 16 15 12 13 12 11 12 10 8 6 6 5 12 13 13 12 12 11 12 13 12 12 12 12 12 13 14 13 14 11 12 14 14 16 12 9 13 14 15 14 14 14 14 14 14 15 15 15 16 16 16 17 17 16 15 14 14 12 12 12 13 14
0 1 1 1 1 2 1 1 3 3 4 2 4 2 2 4 1 1 2 1 2 11 14 16 13 19 13 8 6 8 15 16 17 18 16 15 13 13 12 11 10 10 10 9 7 6 5 7 14 13 12 12 12 13 12 12 12 12 12 12 13 14 15 14 15 14 14 14 16 14 9 11 14 14 13 14 14 15 15 15 14 15 16 16 15 16 16 16 15 15 14 13 13 14 14 14 13
1 0 0 3 0 1 2 1 5 3 5 5 3 3 2 1 2 4 1 7 11 16 15 6 7 17 14 11 7 12 16 15 14 15 15 13 12 13 12 9 10 10 10 9 8 5 5 5 6 11 12 12 13 13 12 12 12 12 12 12 12 12 14 13 13 13 14 15 15 15 11 11 13 15 15 13 13 15 15 15 15 15 15 15 15 15 15 15 15 15 14 13 13 14 14 14 13
1 0 2 0 2 1 2 3 3 5 5 1 4 2 3 5 3 3 1 5 10 13 6 3 18 12 12 10 8 14 15 13 13 14 14 11 12 12 11 11 11 10 9 8 7 7 6 5 5 5 9 13 13 12 12 12 12 12 12 12 13 13 14 13 13 13 14 15 16 16 11 9 11 13 16 15 14 14 14 14 14 15 15 14 15 15 15 15 14 14 14 14 13 13 14 13 13
3 3 2 1 1 1 1 1 3 5 2 4 1 4 3 3 5 4 1 3 8 8 10 13 10 13 16 13 9 11 12 14 16 15 11 13 12 12 13 10 11 9 8 7 7 7 6 5 5 5 5 5 5 9 12 12 12 12 12 12 12 13 14 14 13 13 13 15 17 14 13 11 11 13 14 15 14 14 14 14 14 15 15 15 14 15 15 14 14 14 13 13 13 12 12 12 13
3 1 2 1 1 1 2 2 4 5 5 5 4 4 5 2 3 1 3 6 9 12 11 7 13 10 11 17 12 12 14 16 17 14 13 14 14 13 12 10 9 8 8 7 6 7 6 5 5 5 5 3 3 3 3 8 12 12 12 13 13 14 13 13 13 13 15 13 18 18 14 10 10 12 14 14 14 14 14 14 13 14 14 15 14 15 14 14 13 13 12 11 12 11 11 11 12
3 3 1 0 1 0 1 1 1 4 3 4 5 5 9 2 3 6 3 3 7 8 11 9 7 0 17 7 15 16 17 18 16 15 15 16 13 12 11 10 8 8 6 7 6 6 6 5 5 5 4 4 3 2 3 3 9 12 12 13 13 13 14 13 13 12 14 15 19 19 16 11 9 8 15 12 13 13 11 8 14 14 14 14 14 14 13 13 12 11 11 11 11 10 10 10 11
1 2 1 0 0 1 2 2 3 5 4 6 7 7 4 6 1 2 2 4 8 10 8 8 3 11 12 13 16 18 18 16 14 18 16 12 11 9 8 7 7 6 6 6 6 6 6 7 6 5 3 4 4 3 2 2 6 11 10 13 13 13 13 13 12 12 12 12 13 14 12 7 5 5 6 6 12 7 10 13 13 14 13 13 13 13 12 11 10 10 9 9 9 9 9 10 10
1 1 0 1 2 1 4 3 2 4 7 7 10 6 8 8 4 3 3 4 9 9 8 9 14 10 14 17 18 18 19 17 15 17 14 12 10 10 9 7 7 7 7 6 5 6 7 6 7 5 4 4 4 3 2 1 2 5 3 4 5 9 9 8 7 4 7 4 9 6 5 5 5 3 5 6 5 8 10 14 13 13 12 12 12 11 11 10 10 9 9 8 9 8 9 3 4
2 1 2 1 1 0 4 3 5 8 6 8 7 7 6 5 9 3 7 7 10 13 12 13 15 17 16 18 19 19 19 16 16 15 16 15 12 13 10 8 8 8 7 6 6 8 6 6 6 6 5 4 4 3 2 2 3 3 3 3 4 7 8 5 4 4 3 4 4 4 4 5 4 3 3 4 4 10 9 12 13 12 11 11 10 10 9 9 8 8 9 8 8 9 4 2 2
3 3 0 3 3 2 3 5 7 2 10 9 7 7 7 8 3 3 6 11 14 15 14 16 19 21 20 20 20 17 16 16 15 15 15 14 13 13 12 11 9 9 9 7 8 7 7 6 6 7 7 5 4 3 3 3 2 2 2 3 4 5 3 4 4 3 3 3 4 3 4 4 3 3 9 12 9 4 7 11 13 12 11 10 10 6 7 7 7 7 6 6 4 4 2 1 1
1 2 2 3 2 1 3 8 4 8 8 9 7 8 11 7 5 4 10 12 9 9 12 19 23 23 21 20 18 16 16 15 14 14 14 13 12 10 10 10 10 8 8 8 7 8 8 7 7 7 6 5 4 4 4 4 2 2 2 3 4 4 4 4 3 2 3 3 2 3 3 3 4 4 4 3 4 4 4 4 4 4 3 3 5 3 2 2 3 2 2 2 2 1 1 1 0
4 4 4 5 1 1 6 7 7 10 6 7 7 11 8 5 1 3 5 11 10 10 15 18 21 22 21 20 18 16 17 16 15 14 14 15 14 11 9 8 7 7 8 8 8 8 7 7 8 6 6 5 4 4 4 4 4 3 2 2 3 3 4 4 3 3 3 2 2 2 2 4 5 4 3 3 3 4 3 3 4 3 3 3 2 3 2 2 1 1 1 1 1 1 2 2 1
1 3 3 7 4 2 8 8 9 10 7 7 8 5 6 3 3 2 5 3 3 7 17 20 20 21 20 17 17 18 17 16 15 15 14 14 13 12 11 9 9 9 8 8 8 7 7 7 7 7 6 5 5 4 4 3 4 3 2 2 3 2 3 3 3 3 2 2 2 2 4 4 4 4 4 4 4 3 4 2 3 2 3 2 1 2 1 0 0 1 1 2 2 2 2 3 3
2 4 6 9 7 5 8 9 11 8 9 6 4 6 4 6 8 3 7 5 2 13 18 19 20 20 19 18 17 18 16 16 15 14 14 14 13 13 12 12 9 8 8 8 8 7 7 8 8 7 6 6 5 5 4 4 4 4 3 3 2 3 4 3 3 3 2 3 2 2 3 3 3 4 4 4 3 3 3 2 2 2 1 2 2 2 2 2 2 2 2 3 3 3 4 4 4
6 5 9 6 7 4 8 8 9 10 6 6 7 7 5 5 5 8 4 2 8 15 16 19 20 20 16 17 18 16 15 14 14 13 12 10 11 12 11 8 9 9 9 9 8 8 8 8 8 8 7 6 5 5 4 4 4 4 3 3 3 5 3 3 3 3 2 2 2 3 3 4 2 3 3 3 3 2 2 3 3 3 2 2 2 2 3 4 4 3 4 4 4 5 5 5 5
8 7 7 6 8 8 8 6 3 9 4 8 9 6 3 8 11 11 8 9 8 4 16 19 19 17 17 19 18 16 15 15 14 14 13 11 12 13 11 10 10 10 10 10 9 8 8 9 9 9 8 8 6 5 4 4 5 5 4 4 4 3 3 3 3 3 3 2 2 3 4 3 3 4 3 3 3 3 2 2 2 3 4 4 3 4 3 2 3 3 3 4 4 5 5 6 4
9 8 4 11 10 12 8 4 3 6 5 8 8 7 8 9 4 5 6 4 6 9 18 18 17 16 16 17 16 15 16 15 16 12 12 11 12 12 11 11 11 9 10 10 9 7 8 10 8 8 7 9 7 5 4 4 5 5 4 4 3 3 3 2 3 3 3 2 2 3 3 3 4 4 3 3 2 2 1 3 3 2 3 4 3 3 2 3 2 3 4 5 4 4 5 5 6
6 8 14 14 11 12 8 4 5 2 5 3 6 9 12 5 5 4 6 4 2 13 16 17 16 14 15 16 15 13 14 14 13 12 14 13 10 10 11 11 10 10 11 11 9 8 10 10 10 9 8 8 7 6 5 5 5 5 4 4 3 3 2 2 3 3 3 3 2 3 2 3 3 3 4 3 3 3 2 2 3 3 3 2 2 2 2 2 2 4 4 4 3 2 1 1 3
7 12 10 12 10 8 5 6 2 8 5 4 6 10 8 3 3 2 0 2 3 10 4 18 16 12 15 15 13 12 12 13 13 12 14 12 10 10 12 11 10 10 8 11 11 9 10 10 10 9 8 8 7 7 5 5 5 5 5 4 4 4 3 1 2 4 3 2 2 3 3 2 3 4 4 4 3 3 2 2 2 2 3 2 2 2 1 2 3 4 5 3 3 2 0 1 2
9 2 11 9 6 3 3 4 9 8 4 5 3 4 4 9 6 7 5 6 7 7 6 13 12 12 13 13 13 10 13 13 14 14 12 11 12 12 12 11 11 10 8 8 11 10 8 7 7 7 8 8 8 7 5 5 5 5 4 4 4 4 3 2 3 4 3 3 3 3 3 3 3 3 4 3 3 3 3 3 3 3 2 2 2 1 2 1 1 1 2 2 2 0 0 0 3
9 8 5 7 8 5 7 2 7 10 4 12 7 6 4 8 6 5 3 9 11 11 11 4 13 12 12 12 12 8 11 11 12 15 14 14 12 12 12 11 12 10 8 9 12 11 10 8 8 7 8 8 8 7 7 6 5 5 5 5 5 4 4 3 4 3 3 3 3 3 3 3 3 4 4 5 4 3 3 3 3 4 2 2 2 2 2 2 1 0 1 0 2 3 2 1 2
8 7 1 2 7 6 6 5 12 12 5 12 5 3 5 10 5 4 4 7 9 13 10 8 10 13 14 12 10 10 10 10 10 14 15 16 14 12 12 12 12 11 11 11 11 10 10 9 9 9 9 9 8 8 7 6 6 5 5 5 5 4 4 4 4 4 4 3 3 3 3 3 3 4 4 4 5 3 4 3 3 2 2 1 1 1 0 2 1 1 1 0 2 3 3 2 2
2 7 6 7 5 8 3 7 11 10 11 5 4 4 6 6 8 6 7 8 9 12 9 6 6 15 14 12 9 9 11 7 8 14 16 15 13 12 11 13 13 13 11 11 11 10 10 11 10 11 11 10 9 8 6 5 5 5 5 5 5 5 5 5 4 4 3 2 3 3 3 3 3 3 3 4 4 3 3 2 2 2 2 2 1 2 2 1 0 1 2 2 1 1 2 2 1
2 2 6 6 10 6 3 5 10 7 10 7 2 5 2 6 10 7 5 7 8 10 7 6 6 13 14 12 9 11 10 7 11 14 16 15 12 13 11 13 14 13 11 12 11 11 10 11 10 10 10 10 8 8 7 6 6 5 5 5 4 5 6 5 4 4 4 3 4 4 3 3 3 3 3 4 4 3 3 3 3 3 2 2 2 2 0 0 0 2 2 3 2 0 1 2 2
4 2 5 2 2 12 9 10 11 11 9 6 3 3 6 10 9 9 7 7 7 9 5 2 4 11 14 11 9 11 8 9 12 14 16 13 13 12 13 14 14 12 10 12 12 9 8 9 9 9 10 9 8 8 7 6 6 5 4 4 5 5 4 5 5 5 5 4 4 3 3 3 3 3 3 4 5 4 4 3 3 2 2 2 2 1 0 1 0 1 1 1 2 1 1 1 1
3 2 5 6 7 7 6 5 9 17 13 9 9 9 9 10 9 7 7 4 6 6 3 2 1 8 12 11 9 10 7 11 10 13 15 12 12 13 12 12 12 10 11 11 12 10 9 9 9 8 8 9 8 8 7 6 5 6 5 4 4 5 5 4 4 5 5 5 4 3 3 3 2 2 2 2 3 3 4 3 3 2 2 2 2 1 1 0 0 1 1 1 3 3 1 1 1
6 7 3 10 9 7 4 5 9 11 7 5 8 5 8 11 9 9 10 11 6 6 7 3 1 7 11 11 10 10 8 11 10 12 14 14 15 13 13 11 10 12 12 12 11 10 10 10 9 10 7 9 8 8 7 7 7 6 5 7 7 6 6 5 5 5 5 5 5 4 3 3 2 2 2 3 3 3 3 3 3 2 1 2 2 2 1 1 0 0 1 1 1 2 1 1 1
7 7 7 1 8 8 12 11 12 11 6 6 4 8 6 7 7 8 8 8 11 9 7 4 3 5 9 7 11 12 7 9 10 9 13 15 14 14 12 9 11 13 11 12 12 10 9 9 10 8 7 8 9 8 8 7 6 7 6 7 5 6 5 6 5 5 5 5 5 4 4 3 3 3 2 2 3 4 3 3 3 3 2 2 2 1 0 1 2 2 1 2 1 1 1 2 1
7 7 0 2 4 2 7 4 11 11 4 5 9 9 7 6 6 8 9 8 8 8 7 3 4 5 6 3 6 9 9 12 10 11 13 14 16 15 12 11 12 15 14 13 11 10 9 9 8 7 7 7 7 7 7 6 3 3 3 3 6 4 3 6 7 6 6 6 5 5 4 4 3 3 3 2 3 3 4 4 4 3 2 1 1 1 1 2 1 1 0 0 3 1 2 3 2
6 4 0 4 5 11 5 6 11 9 1 8 9 9 5 5 3 6 6 6 5 4 4 1 2 3 7 7 4 4 10 13 13 13 13 15 16 14 12 12 12 12 12 11 10 11 9 8 8 8 7 6 6 5 5 4 4 3 3 5 4 6 4 4 5 5 5 5 5 5 3 4 3 3 3 3 3 3 4 4 4 3 3 1 2 1 1 2 1 2 1 1 1 2 2 2 1
5 5 4 3 8 5 13 11 9 8 8 10 12 7 3 6 7 5 5 4 4 7 7 4 6 3 2 2 2 2 5 15 13 14 13 15 16 15 14 13 13 13 12 11 11 11 8 10 9 9 8 7 6 5 6 4 4 4 3 3 4 5 5 5 6 4 5 5 4 4 5 4 4 3 3 3 2 3 3 3 3 3 2 1 1 1 1 3 2 2 1 1 1 1 2 1 2
5 5 10 9 10 9 3 10 13 5 5 8 15 4 1 5 7 7 6 6 8 6 10 10 8 7 4 5 6 4 4 5 15 13 14 16 15 14 14 14 14 13 12 11 11 11 10 9 9 8 7 7 6 5 6 5 5 6 4 5 5 5 5 6 7 7 5 6 6 4 3 4 4 3 3 2 2 2 3 3 3 3 2 2 2 2 2 2 3 2 2 2 3 2 2 0 2
4 6 9 12 11 12 11 16 11 7 8 11 8 7 2 3 7 8 8 8 10 8 9 11 10 10 8 8 8 7 6 5 10 12 12 14 15 15 15 15 15 14 12 11 11 11 12 11 10 9 8 7 7 5 5 5 4 6 6 6 6 7 7 4 4 5 7 5 5 5 5 4 4 4 3 3 3 3 3 3 3 3 3 3 2 2 2 3 3 3 2 2 4 2 1 1 1
6 5 3 12 10 12 16 20 14 5 2 9 10 2 7 6 9 9 10 9 9 10 11 11 12 12 11 9 10 8 7 6 6 12 12 15 15 16 16 16 14 14 13 11 10 10 12 11 11 9 8 8 7 6 5 6 6 6 6 6 6 6 7 7 5 6 5 5 5 5 5 5 4 4 4 4 3 3 3 3 3 3 3 3 3 3 4 3 2 3 2 3 2 2 2 2 1
6 5 4 9 19 17 13 11 9 2 6 6 10 4 4 1 3 10 11 11 11 13 14 14 14 14 12 11 10 10 8 7 6 10 14 15 15 16 16 15 14 14 13 12 11 11 10 11 11 9 9 9 8 7 7 6 6 7 6 7 7 6 7 7 5 5 6 5 6 4 5 5 4 4 4 5 4 4 4 4 3 3 3 3 3 3 3 3 3 3 2 1 2 1 1 1 1
6 5 4 4 7 4 14 10 9 4 2 6 11 8 5 1 4 7 10 10 13 14 15 16 16 16 14 12 11 11 8 6 5 7 12 15 15 15 16 15 14 14 13 13 11 11 10 10 10 10 9 9 8 7 7 6 6 7 7 7 9 7 6 5 6 6 6 6 6 6 5 6 5 4 4 4 4 4 4 4 4 4 4 4 3 4 3 3 3 3 3 3 2 1 2 1 1
2 1 2 1 2 4 5 9 8 5 5 9 15 11 8 3 8 11 12 16 19 13 11 11 13 14 14 13 13 11 10 8 6 5 9 16 15 15 15 16 15 14 12 13 11 12 11 11 11 11 10 9 8 8 8 7 7 6 6 7 9 9 7 7 6 5 5 5 7 6 6 6 5 5 4 4 5 5 4 4 3 4 4 3 3 4 4 4 3 4 3 2 2 2 2 2 2
4 2 3 1 3 3 4 5 7 5 7 12 14 12 10 6 5 8 16 1 11 17 18 17 17 16 15 12 11 12 11 10 8 5 8 14 14 15 15 16 15 15 14 13 12 12 12 11 12 11 8 9 9 8 8 8 7 6 5 6 8 8 8 7 9 8 7 8 8 7 6 5 5 5 5 5 5 5 4 4 3 4 4 4 4 4 3 3 3 3 3 3 3 2 1 1 1
3 4 5 6 2 1 3 3 10 8 6 2 13 10 3 5 7 17 19 13 12 14 14 16 16 15 13 12 12 10 10 10 9 6 8 13 14 15 16 16 15 15 14 14 14 13 13 12 13 13 10 10 10 8 9 8 7 6 6 5 6 7 7 7 8 8 7 7 7 7 6 6 5 5 5 6 5 5 4 4 4 4 4 4 4 3 3 3 3 3 3 3 3 3 3 3 2
3 4 4 5 2 2 2 2 2 1 6 1 13 13 4 1 3 3 17 14 11 12 10 12 14 14 14 13 11 10 10 11 10 7 8 12 13 13 15 16 16 15 15 15 15 13 12 11 13 14 12 10 9 8 9 8 8 7 5 5 6 6 6 6 6 7 7 6 7 7 7 7 6 7 6 6 6 5 5 5 5 4 4 4 4 4 4 3 3 4 4 3 3 4 3 3 3
3 3 7 6 5 3 2 2 5 5 6 1 10 9 2 4 4 9 6 4 6 8 7 8 9 10 11 11 11 11 10 10 9 7 8 11 14 13 13 15 14 15 15 15 14 13 12 13 12 13 12 10 9 9 7 9 8 7 5 4 5 5 6 6 5 6 6 6 6 7 6 6 6 6 6 6 6 6 6 5 5 4 4 4 4 3 3 3 3 3 3 3 3 3 3 3 3
3 2 7 5 4 5 2 6 5 4 3 3 4 1 1 1 2 5 2 5 6 8 7 8 8 7 9 9 11 11 11 10 9 7 7 9 14 13 13 12 13 14 15 14 15 13 13 13 13 14 14 12 11 9 8 8 8 7 5 5 5 4 5 5 5 4 5 5 6 7 7 6 6 5 5 5 5 6 6 5 5 5 4 4 4 4 3 3 3 3 3 2 3 2 3 3 4
3 1 4 4 5 4 1 1 2 2 6 2 2 2 2 1 1 7 4 6 6 10 9 10 9 9 9 10 9 10 10 10 10 8 4 3 4 13 13 11 11 13 13 13 14 14 15 13 13 13 12 10 11 10 9 8 7 7 6 6 5 5 6 6 6 6 6 5 5 5 6 6 5 4 5 5 5 5 6 6 6 5 5 4 4 3 3 3 3 3 3 3 3 3 3 4 4
2 0 6 4 2 5 2 3 2 2 3 1 1 3 3 3 3 2 1 7 2 5 10 11 9 10 11 9 10 10 11 10 4 9 14 13 13 12 5 5 9 13 14 13 13 14 13 13 14 14 11 11 11 11 10 8 8 7 6 6 5 6 5 5 5 6 5 5 4 4 4 5 6 6 5 5 5 6 6 6 5 5 5 4 5 4 4 3 3 3 3 3 4 3 3 3 3
4 2 1 1 3 3 2 3 0 1 0 2 2 4 2 3 2 1 4 2 3 3 9 10 11 11 8 5 5 4 4 4 7 11 10 6 6 7 3 7 13 15 12 2 9 10 9 10 13 14 14 14 13 11 10 8 8 7 6 7 6 5 4 4 4 5 5 6 6 6 5 6 5 5 5 4 5 6 6 6 5 5 4 5 4 5 4 4 4 4 3 4 3 3 3 4 4
2 2 3 1 3 1 4 5 4 6 2 4 0 3 2 1 2 3 3 6 9 12 2 6 7 7 7 6 6 5 6 6 7 7 7 8 8 3 9 15 17 16 14 15 15 13 11 6 3 1 9 12 11 11 10 10 9 7 7 5 4 4 4 5 5 5 6 6 6 6 6 6 7 6 6 5 5 6 6 6 5 5 5 5 5 5 5 4 4 5 4 4 4 3 3 4 4
2 3 1 0 1 3 2 1 2 2 5 5 6 1 4 3 2 0 1 3 5 9 8 7 9 10 10 9 8 7 7 6 6 9 6 4 6 7 8 12 13 13 13 13 13 14 12 10 8 7 4 2 7 9 9 8 8 8 7 7 6 5 5 5 5 6 6 6 6 6 6 6 5 6 6 6 6 6 7 7 7 6 5 5 5 5 4 4 4 4 4 4 3 3 4 4 3
1 2 2 4 2 1 0 6 4 2 7 4 6 3 1 2 1 1 5 5 6 8 6 10 13 12 11 9 9 8 8 8 9 9 8 8 9 7 7 6 6 8 8 11 12 10 9 9 10 10 11 9 6 4 3 2 1 4 7 6 6 5 5 5 6 5 6 6 6 6 6 5 6 6 5 7 7 6 6 7 8 8 6 6 6 6 5 4 5 5 5 4 4 4 4 5 4
Wind_Direction
145 122 120 153 117 49 109 228 52 356 88 251 242 313 108 62 171 115 104 181 150 130 190 73 106 125 173 182 134 98 45 136 322 145 187 162 132 141 149 124 128 131 131 148 161 154 148 149 149 129 128 127 120 117 118 117 113 110 108 109 108 107 103 103 103 101 100 100 98 106 109 112 114 114 117 126 125 125 125 126 127 126 123 116 113 113 113 113 111 109 108 107 108 110 111 112 111
135 139 152 152 152 164 273 220 90 260 69 4 268 142 101 113 132 137 159 188 171 163 138 65 57 37 330 118 136 94 26 12 37 119 69 116 122 134 138 132 140 138 142 152 158 147 157 175 155 139 135 126 121 119 121 116 111 111 114 111 109 104 103 99 98 98 102 105 110 106 106 105 113 112 115 125 129 129 125 129 130 130 126 115 110 111 111 106 108 110 110 109 110 111 111 111 110
135 142 121 136 339 199 289 218 80 334 48 16 302 64 103 132 142 175 200 229 310 159 90 80 85 102 250 128 72 46 87 30 99 92 98 131 123 154 143 137 139 137 144 150 147 152 169 177 157 146 134 127 123 123 123 117 116 117 114 111 110 110 107 102 102 105 104 104 103 103 105 109 112 119 121 124 121 112 114 129 125 118 107 99 104 102 101 108 110 111 109 108 108 110 109 109 109
119 129 135 151 17 172 21 20 115 51 52 233 316 38 68 91 143 163 207 112 45 11 138 120 105 347 207 78 101 83 81 89 97 127 131 156 149 144 142 140 136 133 135 140 140 161 165 167 152 145 133 128 128 130 122 115 118 120 117 115 114 113 111 107 104 104 106 109 109 107 112 115 118 123 128 128 123 127 130 126 120 118 117 113 109 108 111 112 111 107 107 108 109 109 108 109 111
91 95 88 117 356 333 97 339 18 34 56 187 219 323 90 229 107 108 116 98 121 222 192 148 106 128 103 109 135 129 146 104 104 76 122 118 128 138 138 136 136 135 139 143 150 159 174 170 170 147 136 131 131 127 117 115 131 124 119 116 114 112 112 111 110 110 111 108 105 110 114 118 120 123 126 124 125 123 122 125 124 122 123 118 107 110 116 114 111 114 109 111 112 113 112 112 112
87 72 30 136 168 286 27 40 104 105 228 242 127 26 31 38 36 22 7 147 178 247 201 133 127 144 76 30 35 102 136 135 143 105 124 137 138 140 138 135 135 137 136 140 154 158 166 176 176 145 137 133 128 124 119 131 128 123 118 117 117 119 119 116 115 112 113 112 111 114 119 118 122 120 123 128 128 124 124 121 119 122 120 117 122 122 124 119 119 115 113 114 114 113 113 113 114
115 73 245 92 325 180 86 307 219 165 71 304 58 90 280 58 25 107 171 222 245 191 106 109 118 107 81 99 88 92 67 111 128 134 135 136 136 138 139 139 139 135 138 143 146 152 166 175 154 142 137 132 129 128 130 137 130 125 125 125 125 120 121 120 115 114 113 112 109 107 113 119 117 121 124 126 125 125 126 120 124 123 121 124 123 128 131 127 120 116 115 113 113 112 112 113 115
341 270 243 160 270 87 153 218 214 168 67 54 144 133 143 84 138 227 158 164 145 114 138 128 125 91 83 53 100 107 119 81 114 124 127 133 136 138 144 143 134 134 136 138 143 154 168 157 145 138 132 131 134 132 124 136 133 126 127 127 126 127 120 110 114 115 115 114 114 113 113 116 120 121 125 124 121 123 123 125 127 124 127 129 133 134 135 126 120 119 117 116 113 112 112 114 114
344 81 291 67 322 253 181 229 178 81 94 148 108 135 120 128 141 117 356 245 107 99 98 114 128 95 124 103 87 106 93 113 118 125 131 135 139 146 140 135 133 131 134 139 148 161 151 150 141 135 133 138 138 131 137 136 127 126 126 126 125 118 115 117 120 122 120 115 107 105 121 124 126 123 124 125 123 122 124 124 128 134 135 132 133 130 126 122 122 122 120 117 112 109 111 117 120
340 360 228 113 264 303 230 272 144 81 130 136 130 123 99 23 107 63 214 71 108 104 111 82 140 102 120 96 107 108 122 125 128 129 135 139 143 139 128 129 132 134 135 140 146 142 147 142 138 136 139 139 139 138 134 134 124 123 126 125 123 119 121 120 123 126 118 113 106 109 121 128 121 120 122 121 120 124 124 126 128 129 130 130 129 126 123 121 121 119 115 113 113 112 113 122 122
246 56 192 109 43 280 332 151 84 142 155 134 87 70 95 147 201 100 5 114 121 103 96 110 99 111 110 94 74 106 124 133 138 138 143 144 137 124 124 123 129 134 137 140 137 140 138 137 142 142 141 142 143 132 134 127 125 125 126 125 125 126 128 132 132 119 116 109 112 120 131 123 120 122 124 124 127 128 128 132 132 131 131 130 127 124 123 122 120 118 116 114 112 111 113 121 123
300 46 91 50 298 280 301 158 130 170 131 125 114 110 259 142 177 92 176 112 112 111 129 160 124 119 96 111 119 132 136 142 141 140 140 135 122 122 121 124 130 133 135 136 136 131 127 138 136 144 144 144 136 135 135 127 126 127 126 125 118 123 120 120 118 120 121 118 111 116 128 125 125 125 123 124 125 127 130 132 133 131 130 130 128 125 125 124 121 118 118 114 112 114 115 117 122
195 37 89 129 296 340 19 129 184 146 114 181 141 178 152 91 52 45 72 100 125 127 109 97 130 118 116 122 134 136 146 147 139 139 136 129 123 121 122 127 131 134 138 136 132 128 126 130 144 136 142 142 137 138 130 128 129 128 127 128 128 121 120 119 119 121 118 115 114 115 118 123 121 119 120 125 124 126 129 129 130 131 131 131 130 129 128 126 122 121 122 120 117 117 119 121 123
135 182 117 312 334 20 88 107 128 89 104 200 116 99 42 35 37 325 49 99 115 104 123 134 120 118 107 118 144 150 148 148 141 139 134 122 123 124 128 131 133 133 136 134 128 127 128 137 131 126 125 128 135 132 133 132 131 130 130 129 128 126 123 123 123 125 119 119 113 106 114 118 119 119 122 124 125 129 128 127 129 130 131 131 132 131 128 125 122 123 123 124 124 119 116 119 121
126 144 102 249 351 83 255 159 136 147 148 158 102 79 78 7 185 233 80 105 101 122 123 115 131 112 165 151 156 159 151 143 143 144 125 125 123 126 131 132 129 131 132 133 127 129 134 130 109 98 107 106 101 102 118 137 135 133 133 131 131 129 128 127 129 131 123 126 113 116 116 119 126 120 122 121 123 125 127 128 131 131 131 130 129 128 127 126 125 125 127 127 125 121 114 113 111
153 118 146 14 60 222 254 109 226 120 124 167 128 137 112 145 236 140 205 249 125 125 136 142 201 90 148 136 145 142 141 140 145 133 127 127 126 126 127 128 130 132 135 137 138 136 135 116 103 105 106 114 115 96 119 133 137 135 134 133 133 132 134 133 130 129 125 122 121 123 129 129 127 123 120 119 124 130 130 131 132 130 125 123 123 124 125 126 128 129 130 131 128 121 114 112 112
118 95 57 9 359 160 202 172 189 151 132 139 138 169 153 152 194 299 274 227 143 139 142 152 107 115 130 135 133 134 136 137 135 132 130 128 127 127 128 133 137 138 142 146 148 145 132 123 120 115 124 133 121 117 115 133 142 136 135 135 136 139 134 132 130 121 110 117 106 110 114 115 118 111 117 130 131 136 137 134 130 123 121 121 121 123 124 129 130 131 129 130 130 127 122 117 116
118 57 135 18 212 166 184 190 177 117 141 156 150 193 137 138 187 212 70 247 126 126 109 111 119 116 126 126 130 134 136 138 142 137 135 132 136 138 144 148 148 153 152 152 156 141 136 135 134 133 138 132 128 118 107 92 101 112 95 117 127 122 117 121 109 100 104 69 90 80 80 102 110 131 125 136 128 131 132 127 121 120 121 121 123 122 127 131 133 136 137 138 139 134 124 95 108
118 140 94 241 205 207 160 173 132 147 156 155 147 125 113 185 164 166 140 141 130 119 128 134 120 119 124 128 134 139 144 147 146 139 140 142 145 149 149 150 156 151 158 160 147 146 147 141 144 144 143 144 127 115 103 90 78 85 88 97 107 115 123 121 97 93 77 92 86 86 91 103 112 107 122 127 135 128 122 118 119 120 122 121 121 123 126 133 138 139 145 146 149 140 99 81 88
205 121 207 244 219 174 178 161 161 147 141 145 147 146 124 231 231 153 145 135 130 137 142 134 131 133 141 140 144 145 144 144 143 143 144 145 148 149 150 156 157 165 160 156 150 147 147 154 151 142 148 150 132 119 108 105 99 92 90 86 87 103 107 97 104 101 95 99 99 106 107 112 117 135 128 122 114 86 111 119 122 120 120 121 120 116 127 135 139 144 144 142 100 51 60 39 46
204 98 182 242 211 184 161 155 169 138 151 147 157 156 156 193 230 170 141 125 134 144 150 146 142 142 143 145 144 142 144 145 144 145 145 145 146 148 154 158 161 158 150 140 143 150 153 154 143 145 146 149 138 135 132 136 119 98 95 96 98 102 106 101 106 110 118 115 111 116 116 95 96 86 70 71 67 82 71 64 71 59 62 73 82 70 67 81 67 44 23 41 48 53 18 343 36
127 209 195 201 277 19 150 152 140 146 148 146 149 146 165 175 179 140 144 135 151 157 149 143 140 141 144 146 144 142 146 148 149 148 150 150 151 150 150 148 138 133 136 143 151 147 152 147 145 142 144 150 146 138 143 154 132 136 125 123 105 98 110 118 121 132 137 133 131 129 95 100 106 106 104 94 97 93 95 104 108 99 87 91 81 66 50 65 62 33 25 2 324 291 270 267 231
156 255 245 225 221 130 146 141 153 142 153 155 153 159 129 168 129 133 101 113 159 151 142 142 139 143 143 141 139 144 148 151 153 152 153 153 152 150 151 151 146 144 146 146 145 147 143 139 143 142 142 147 143 139 148 136 139 142 120 119 118 130 123 125 138 148 152 149 145 135 115 127 122 128 127 128 126 128 123 129 124 119 119 106 89 105 108 314 333 284 298 255 255 256 255 258 246
177 197 212 220 209 186 146 141 153 147 150 161 153 146 136 145 138 78 47 331 80 136 140 138 137 140 143 143 143 147 150 153 156 155 156 156 155 153 153 153 146 139 140 144 147 145 150 145 147 146 140 146 147 156 151 142 154 141 155 157 134 172 135 145 165 165 161 153 153 153 132 140 135 137 142 146 156 152 157 158 155 125 124 138 127 132 176 217 224 247 257 275 262 245 252 247 240
212 241 185 215 198 139 114 132 153 153 154 138 140 139 146 143 112 82 65 18 358 140 140 135 139 144 148 141 145 149 150 152 155 153 153 154 152 150 151 145 143 146 145 150 148 146 152 150 152 151 148 147 156 161 162 151 155 152 145 142 176 171 141 166 173 168 169 186 170 157 148 146 137 144 151 163 165 168 173 171 165 161 149 188 170 202 187 192 210 203 218 237 242 245 240 243 236
217 212 170 150 157 121 132 107 146 148 148 155 136 122 87 56 70 57 47 7 348 215 135 139 141 146 141 146 149 151 154 158 156 157 158 157 156 155 159 154 150 158 156 152 151 150 150 153 160 160 153 151 160 169 169 149 155 149 151 160 188 146 162 165 164 164 196 185 204 156 158 155 163 163 170 175 161 169 162 176 165 167 171 182 186 215 228 220 235 238 237 232 234 250 251 246 214
193 186 106 66 73 94 36 48 351 178 159 170 139 126 86 26 39 85 347 320 325 158 139 142 146 146 145 149 151 153 158 162 164 161 155 159 158 161 160 156 159 160 151 155 155 152 151 158 162 164 148 151 161 171 163 148 148 155 159 165 166 153 181 169 156 169 192 203 188 152 153 174 169 168 169 181 165 155 134 161 182 176 182 191 196 212 229 236 269 270 256 249 230 229 204 206 174
168 148 93 86 83 80 105 62 245 238 161 171 118 102 91 86 54 171 195 288 329 128 145 146 149 153 151 154 156 159 161 164 163 160 161 161 165 163 162 162 163 155 156 159 158 157 153 161 157 162 153 152 161 165 166 152 159 163 164 163 160 178 183 165 158 170 199 214 181 161 156 175 169 170 171 176 171 166 188 160 165 177 214 223 203 227 245 263 273 270 264 242 215 234 302 177 168
136 141 102 96 92 86 94 105 337 342 324 153 136 101 104 81 74 52 55 104 45 122 173 151 155 152 150 156 160 167 165 166 165 166 167 165 165 163 165 167 159 157 165 159 157 161 156 158 154 155 153 153 157 164 167 161 152 161 166 171 166 175 191 163 168 192 204 217 198 181 179 173 149 161 183 182 173 177 184 173 192 205 219 215 229 230 275 308 282 287 318 316 354 19 83 267 145
105 40 118 99 86 85 205 150 130 128 249 204 171 117 162 110 158 167 173 137 140 135 163 160 156 153 150 156 165 168 167 167 169 171 166 162 164 166 167 167 157 158 160 156 156 163 158 154 150 148 153 156 160 161 162 164 166 159 167 166 165 169 186 185 195 202 210 212 198 199 177 182 149 158 161 168 161 170 188 201 208 228 230 212 214 240 253 276 238 297 289 9 308 27 256 14 115
127 101 93 132 128 194 202 174 135 140 177 287 285 155 178 125 182 152 158 152 155 157 173 176 161 158 155 157 169 166 173 173 166 166 160 162 163 166 170 157 155 155 153 157 164 161 161 153 151 149 156 158 159 163 168 174 170 164 166 164 164 170 180 196 203 214 208 199 193 195 187 192 176 166 169 158 172 170 183 209 229 230 228 203 202 226 198 192 147 65 332 328 348 12 6 19 142
130 104 48 204 151 171 183 175 165 155 216 242 272 123 166 143 160 153 146 153 151 157 175 179 172 156 158 166 168 167 179 177 161 160 154 160 161 165 170 153 153 154 160 164 163 157 162 154 158 152 157 160 163 168 172 172 174 171 166 164 154 170 178 196 208 211 202 189 185 185 190 195 179 170 166 161 168 176 179 199 227 237 210 186 208 216 98 49 8 311 273 139 47 1 8 335 57
155 128 187 183 169 163 131 207 195 176 160 226 249 159 115 145 160 161 161 141 153 159 177 186 182 157 160 170 166 172 176 166 151 151 154 155 163 167 160 149 156 159 161 161 160 159 160 159 158 154 162 165 165 171 167 166 168 174 172 168 166 170 178 197 206 212 188 174 172 169 172 163 147 155 170 178 175 168 175 193 210 199 179 168 123 47 60 62 29 298 332 21 93 12 348 325 352
306 164 168 181 161 140 207 148 210 193 172 189 236 139 184 133 140 147 146 140 150 163 172 201 199 158 164 167 169 171 175 159 152 152 156 159 163 161 151 154 154 158 162 161 160 163 158 157 158 161 162 163 163 167 169 168 180 172 174 168 166 179 186 191 195 190 174 167 157 160 162 140 130 137 150 172 176 168 164 162 174 164 150 125 84 63 51 304 325 53 359 341 12 70 313 353 303
179 76 114 88 130 171 163 165 193 178 190 163 143 116 133 145 138 150 149 146 155 166 164 147 195 164 166 166 166 177 163 160 156 153 158 159 157 152 154 153 153 156 159 159 159 162 154 151 155 163 159 162 165 165 165 171 174 173 180 163 174 185 191 199 182 170 168 157 155 153 144 130 128 128 132 149 150 147 142 147 137 137 122 103 91 75 12 309 5 48 68 294 289 239 216 270 285
14 99 118 133 144 210 209 197 137 171 165 163 171 162 158 152 149 135 127 91 162 161 151 180 357 181 166 166 170 176 155 161 164 152 158 154 152 153 155 154 155 153 155 157 156 157 153 149 151 158 161 162 163 164 160 165 170 175 179 172 171 190 194 197 180 170 162 152 156 146 142 136 132 131 127 124 125 132 135 136 125 113 109 107 120 166 245 289 321 28 357 356 348 343 334 222 221
301 302 266 168 182 200 166 203 155 169 132 174 163 135 158 157 151 145 142 149 159 148 176 192 187 178 171 166 171 175 156 163 170 151 151 147 150 155 152 154 151 151 155 155 155 160 156 154 151 159 159 155 162 163 164 166 176 181 176 176 183 187 190 176 170 167 164 164 156 147 148 147 148 149 132 123 135 136 128 128 125 141 150 160 171 202 245 298 274 225 322 321 14 4 322 352 328
260 270 279 142 176 205 189 171 161 172 148 172 138 141 161 145 132 139 143 148 166 170 173 199 193 188 166 154 171 172 164 156 167 149 144 143 151 154 152 149 147 150 159 157 159 163 159 153 155 156 148 152 156 164 165 166 171 175 164 173 168 170 163 159 162 168 165 161 153 148 153 154 164 160 142 129 131 136 133 138 152 171 185 194 195 232 229 312 344 356 9 342 358 344 298 297 302
249 240 208 261 240 165 115 97 157 175 99 152 143 138 141 145 139 143 160 171 177 173 171 176 182 189 160 173 156 178 152 162 168 159 149 147 151 156 156 150 154 155 159 160 159 157 157 154 153 152 151 149 152 157 154 159 159 157 137 162 149 149 156 155 157 162 157 154 158 156 155 158 163 162 154 144 139 150 152 151 170 177 179 198 155 270 353 323 325 305 356 356 326 343 287 288 310
237 261 124 231 157 128 174 168 173 174 176 162 145 110 120 133 119 155 178 174 169 132 96 34 356 230 177 190 174 186 163 163 171 165 156 152 153 158 158 152 155 155 156 156 158 160 159 156 158 155 153 147 152 161 156 147 150 159 126 139 137 138 148 130 124 137 140 140 155 159 164 159 166 169 170 164 151 152 158 167 169 173 185 160 151 182 304 302 280 287 298 300 64 334 355 315 301
241 209 166 173 160 198 160 175 164 169 77 127 107 86 71 156 163 171 188 123 97 127 119 234 248 254 296 243 214 197 204 164 173 167 158 154 155 160 161 154 154 158 161 161 161 163 164 163 165 160 155 154 156 162 161 156 145 137 103 91 95 81 84 107 117 133 154 160 148 165 186 167 167 174 177 176 162 168 166 162 165 177 181 202 137 169 243 250 262 255 234 265 212 213 314 302 312
266 214 189 179 167 145 235 139 156 157 125 176 141 73 277 191 191 186 173 146 181 168 163 202 215 214 214 222 218 218 248 193 170 170 163 160 157 157 158 155 158 161 163 164 162 160 156 162 162 159 157 155 160 167 171 160 164 161 131 131 128 131 144 142 153 160 165 169 178 174 175 174 169 178 181 183 176 168 162 168 169 171 184 195 198 206 230 279 294 303 251 209 268 233 230 20 326
220 265 179 176 174 155 158 163 175 138 168 194 209 113 181 158 198 198 185 181 183 168 187 195 192 202 204 212 215 211 206 218 182 166 162 163 158 156 162 161 162 163 164 160 159 155 156 161 162 162 164 165 163 171 181 166 164 167 153 162 157 159 163 195 164 163 163 170 152 164 181 182 175 178 190 182 185 183 167 178 179 184 189 190 209 197 243 242 253 248 261 215 234 219 140 355 314
237 234 127 164 160 159 173 173 188 191 86 166 193 84 141 190 215 191 181 193 190 183 197 194 194 199 202 206 210 208 202 199 183 173 165 167 162 160 165 165 164 164 160 157 157 154 156 162 163 164 166 169 171 173 186 176 170 173 160 162 162 164 170 179 175 167 163 157 157 168 175 191 183 186 183 188 187 188 181 193 191 187 189 202 205 202 218 238 260 275 236 223 226 167 157 160 241
223 248 191 156 177 181 159 177 179 355 122 151 208 141 63 224 199 162 174 191 202 204 198 198 194 198 204 201 209 210 197 199 179 182 167 170 166 164 163 166 164 160 161 161 160 160 156 161 161 162 168 172 175 176 183 183 171 169 164 163 162 178 173 173 174 163 161 166 166 174 178 195 194 192 185 180 190 195 193 192 192 199 204 215 218 219 229 221 219 226 240 242 225 166 179 172 137
257 216 136 129 159 148 153 159 186 194 138 193 203 172 117 234 167 163 184 201 212 208 202 200 195 195 195 196 201 211 200 197 188 198 170 170 169 167 166 162 161 165 166 162 156 157 154 158 162 165 171 176 175 175 179 182 176 161 158 166 162 172 176 169 165 170 171 169 174 178 187 193 197 197 199 187 187 197 202 194 191 198 211 216 214 220 225 223 213 193 209 200 216 219 295 219 219
220 246 99 26 59 96 169 170 161 99 219 222 199 178 133 173 203 184 165 207 199 194 198 201 199 196 194 193 193 199 201 196 195 196 179 173 169 165 163 165 166 163 163 163 157 161 157 161 166 170 175 175 175 174 173 182 181 168 166 164 163 168 174 164 171 182 170 174 177 180 184 196 192 196 193 196 193 192 205 202 198 210 215 216 217 218 224 207 194 187 199 178 171 185 255 261 285
213 223 146 51 329 42 117 140 169 167 225 231 207 186 148 144 228 213 222 278 182 185 190 190 194 195 192 190 192 195 197 195 194 187 178 176 168 165 166 167 167 165 163 165 163 163 163 163 166 170 176 177 175 173 172 182 180 177 174 166 167 170 171 165 177 184 181 181 181 179 183 180 192 187 188 190 202 193 195 207 206 210 216 214 215 218 218 199 187 178 183 179 209 224 219 226 278
198 81 66 117 238 27 210 124 185 220 203 234 171 166 179 231 206 196 208 211 186 194 188 189 189 188 188 190 192 194 196 196 194 185 177 174 176 168 168 168 167 167 168 168 166 167 167 166 167 169 181 180 176 172 176 180 180 183 181 179 176 174 174 165 176 180 182 180 178 175 172 182 183 178 190 192 203 195 189 208 210 210 221 213 214 208 216 208 197 181 184 191 212 228 220 222 253
102 168 130 103 163 77 189 252 154 271 263 199 153 167 187 221 335 261 204 195 186 186 191 188 184 183 184 186 189 192 198 199 195 185 182 171 178 175 170 169 170 172 172 169 166 166 169 171 171 172 180 181 175 174 176 180 186 185 187 187 181 172 181 168 169 176 181 179 174 177 179 181 182 186 185 196 199 194 192 206 207 212 214 209 200 209 201 204 190 186 186 190 211 230 234 236 239
209 171 144 171 145 153 182 191 165 192 199 56 139 154 247 160 236 318 228 180 164 171 171 177 185 183 180 180 185 191 199 202 198 186 185 172 176 179 175 171 172 175 174 169 167 168 169 172 174 176 173 180 176 177 176 181 186 187 185 196 186 175 177 172 171 173 171 172 180 173 183 182 183 191 187 197 196 196 195 202 208 208 211 209 205 201 206 199 190 192 186 195 212 221 227 226 247
269 180 95 95 222 137 162 202 154 195 177 92 348 100 296 171 273 282 10 107 136 151 158 158 174 170 167 174 185 191 195 198 199 188 187 178 174 179 179 172 173 176 175 170 168 167 171 173 176 177 176 176 177 176 178 182 188 187 183 194 194 187 175 169 168 170 168 168 171 173 182 186 192 188 199 195 201 195 197 200 204 205 201 198 199 200 196 195 188 195 213 198 224 230 230 235 251
281 48 202 204 180 121 80 321 293 128 78 6 110 22 326 277 333 6 38 90 145 158 164 169 172 169 168 180 186 187 187 192 196 193 180 138 170 176 180 173 173 176 174 172 169 170 172 173 175 176 177 174 177 179 177 181 184 187 193 193 189 192 177 179 175 178 177 176 162 173 180 192 193 184 197 202 200 203 203 198 200 202 193 195 195 198 199 198 183 199 211 209 232 253 230 243 257
122 219 246 272 140 107 133 209 332 53 138 153 62 137 186 124 188 303 352 150 211 178 170 176 169 167 177 185 186 183 182 181 150 62 47 46 32 3 343 183 162 178 172 169 170 171 171 172 174 173 172 177 181 177 180 179 180 191 194 196 200 192 185 183 176 179 180 176 177 177 183 189 199 200 187 193 195 200 206 199 195 203 195 189 199 196 193 204 191 202 218 223 232 233 239 265 261
140 183 215 116 218 252 319 102 168 97 74 121 30 335 17 40 305 16 290 266 239 242 176 172 169 170 167 150 144 127 110 91 90 109 114 115 158 210 248 26 27 29 18 33 157 160 166 175 177 172 176 180 178 179 179 180 180 187 195 199 197 196 191 179 178 180 179 186 193 190 191 200 206 212 205 193 176 195 195 198 189 202 197 197 199 203 190 194 195 204 208 225 248 247 251 262 268
4 47 14 154 108 157 145 206 174 114 162 95 353 31 228 267 197 290 349 18 356 337 226 152 136 125 98 101 95 93 78 78 83 84 123 152 169 139 59 68 71 69 70 59 41 32 41 43 45 245 192 175 170 176 176 180 184 186 191 193 198 203 198 184 180 179 187 194 202 199 201 198 207 206 208 201 178 179 185 185 189 199 203 202 201 210 200 194 190 203 205 209 232 230 244 253 267
355 34 326 6 344 213 112 306 135 156 154 159 142 179 276 286 250 154 70 43 70 345 334 50 69 67 66 67 67 65 62 63 85 100 105 98 78 82 107 118 124 128 133 135 142 151 154 146 145 133 118 149 175 174 175 181 181 189 185 190 193 192 203 199 191 190 191 196 202 205 207 208 195 202 202 200 196 183 180 184 186 195 202 204 210 215 213 201 194 207 219 211 223 218 231 251 253
152 152 210 174 98 23 345 283 327 71 103 159 135 201 263 359 45 23 68 32 51 35 10 52 71 64 59 58 54 51 60 57 68 89 108 112 101 101 104 96 94 116 129 147 153 148 154 169 173 166 166 155 133 120 123 111 181 201 197 195 196 189 196 202 204 201 204 199 202 208 208 212 209 209 195 197 199 199 184 180 185 193 198 202 206 212 214 203 206 214 225 219 220 220 227 243 242